GW3356 Weather Reports


time (UTC)temp
C
wind
direction
speed
KPH
gust
KPH
rain 1hr
cm
rain 24hr
cm
rain mn
cm
humidity
%
barometer
mb
20260504180207 16 18 0.0 0.0 0.00 0.46 0.46 91 1004.5
20260504175704 16 22 0.0 0.0 0.00 0.46 0.46 91 1004.4
20260504175201 15 24 0.0 0.0 0.13 0.46 0.46 91 1004.4
20260504174659 15 19 0.0 0.0 0.30 0.46 0.46 90 1004.5
20260504174155 15 34 0.0 0.0 1.27 0.43 0.43 89 1004.7
20260504173652 16 16 0.0 0.0 1.27 0.38 0.38 89 1004.7
20260504173150 16 19 0.0 0.0 0.18 0.20 0.20 89 1004.9
20260504172646 16 21 0.0 0.0 0.13 0.18 0.18 89 1004.9
20260504172143 16 26 0.0 1.6 0.13 0.18 0.18 88 1005.0
20260504171639 16 14 0.0 0.0 0.00 0.15 0.15 87 1005.2
20260504171137 16 25 0.0 0.0 0.00 0.15 0.15 88 1005.1
20260504170633 15 24 0.0 0.0 0.00 0.15 0.15 88 1005.1
20260504170130 15 30 0.0 0.0 0.00 0.15 0.15 87 1005.2
20260504151016 17 11 0.0 0.0 0.00 0.00 0.00 65 1006.8
20260504150513 18 12 0.0 0.0 0.00 0.00 0.00 68 1006.6
20260504140939 20 26 0.0 0.0 0.00 0.00 0.00 57 1006.7
20260504140436 20 14 0.0 0.0 0.00 0.00 0.00 58 1006.6
20260504130400 16 16 0.0 1.6 0.00 0.00 0.00 68 1007.3
20260504110248 14 14 0.0 0.0 0.00 0.00 0.00 74 1007.5
20260504100211 15 15 0.0 0.0 0.00 0.00 0.00 70 1007.9
20260504090133 15 15 0.0 0.0 0.00 0.00 0.00 68 1007.6
20260504081604 16 15 0.0 0.0 0.00 0.00 0.00 67 1007.6
20260504081100 16 15 0.0 0.0 0.00 0.00 0.00 66 1007.4
20260504080556 16 15 0.0 0.0 0.00 0.00 0.00 65 1007.3
20260504050409 18 32 0.0 6.4 0.00 0.00 0.00 54 1007.4
20260504045906 18 36 0.0 1.6 0.00 0.00 0.00 55 1007.3
20260504045402 18 16 0.0 3.2 0.00 0.00 0.00 55 1007.6
20260504044858 18 10 1.6 3.2 0.00 0.00 0.00 55 1007.4
20260504044356 18 45 1.6 3.2 0.00 0.00 0.00 55 1007.2
20260504043853 18 19 0.0 1.6 0.00 0.00 0.00 55 1007.4
20260504043350 18 26 1.6 4.8 0.00 0.00 0.00 55 1007.6
20260504042848 18 34 0.0 1.6 0.00 0.00 0.00 54 1007.7
20260504042344 19 28 0.0 1.6 0.00 0.00 0.00 54 1008.0
20260504041840 19 34 0.0 3.2 0.00 0.00 0.00 52 1008.1
20260504041336 19 11 0.0 4.8 0.00 0.00 0.00 51 1008.2
20260504040832 19 26 0.0 1.6 0.00 0.00 0.00 52 1008.2
20260504040330 19 350 0.0 1.6 0.00 0.00 0.00 52 1008.3
20260504035826 19 14 0.0 0.0 0.00 0.00 0.00 52 1008.4
20260504035324 18 30 0.0 1.6 0.00 0.00 0.00 53 1008.3
20260504034821 18 31 0.0 1.6 0.00 0.00 0.00 55 1007.7
20260504034318 18 19 1.6 3.2 0.00 0.00 0.00 57 1007.4
20260504033815 18 10 0.0 1.6 0.00 0.00 0.00 56 1008.3
20260504033313 18 16 0.0 1.6 0.00 0.00 0.00 57 1008.3
20260504032809 18 9 0.0 1.6 0.00 0.00 0.00 56 1008.8
20260504032306 18 10 1.6 1.6 0.00 0.00 0.00 56 1008.7
20260504031803 19 13 0.0 0.0 0.00 0.00 0.00 55 1008.8
20260504031301 19 13 0.0 0.0 0.00 0.00 0.00 55 1008.9
20260504030756 19 13 0.0 0.0 0.00 0.00 0.00 54 1008.9
20260504030254 19 13 0.0 0.0 0.00 0.00 0.00 54 1008.8
20260504025750 19 14 0.0 0.0 0.00 0.00 0.00 53 1008.8
20260504025247 20 14 0.0 0.0 0.00 0.00 0.00 52 1008.6
20260504024744 20 14 0.0 0.0 0.00 0.00 0.00 51 1008.7
20260504024240 20 14 0.0 0.0 0.00 0.00 0.00 51 1008.6
20260504023738 20 14 0.0 0.0 0.00 0.00 0.00 50 1008.8
20260504023233 20 23 0.0 0.0 0.00 0.00 0.00 49 1008.8
20260504022730 20 23 0.0 0.0 0.00 0.00 0.00 49 1008.7
20260504022226 21 23 0.0 0.0 0.00 0.00 0.00 48 1008.6
20260504021723 21 23 0.0 0.0 0.00 0.00 0.00 47 1008.5
20260504021220 21 23 0.0 0.0 0.00 0.00 0.00 47 1008.6
20260504020717 21 24 0.0 0.0 0.00 0.00 0.00 46 1008.6
20260504020214 21 19 0.0 1.6 0.00 0.00 0.00 44 1008.4
20260504015710 21 33 0.0 1.6 0.00 0.00 0.00 44 1008.8
20260504015206 21 29 0.0 0.0 0.00 0.00 0.00 45 1008.7
20260504014702 21 23 0.0 0.0 0.00 0.00 0.00 46 1008.7
20260504014159 21 24 0.0 0.0 0.00 0.00 0.00 49 1008.6
20260504013657 21 24 0.0 0.0 0.00 0.00 0.00 46 1008.2
20260504013154 21 29 0.0 0.0 0.00 0.00 0.00 45 1008.2
20260504012651 21 17 0.0 1.6 0.00 0.00 0.00 45 1008.0
20260504012149 21 13 0.0 0.0 0.00 0.00 0.00 45 1008.0
20260504011645 21 21 0.0 0.0 0.00 0.00 0.00 44 1008.0
20260504011142 21 22 0.0 0.0 0.00 0.00 0.00 45 1008.1
20260504010638 21 22 0.0 0.0 0.00 0.00 0.00 44 1007.8
20260504010134 22 22 0.0 0.0 0.00 0.00 0.00 44 1008.0
20260504005631 22 22 0.0 0.0 0.00 0.00 0.00 43 1008.2
20260504005127 22 22 0.0 0.0 0.00 0.00 0.00 43 1008.1
20260504004626 22 33 0.0 0.0 0.00 0.00 0.00 42 1007.9
20260504004123 22 27 0.0 0.0 0.00 0.00 0.00 42 1008.1
20260504003619 23 27 0.0 0.0 0.00 0.00 0.00 41 1008.1
20260504003115 23 27 0.0 0.0 0.00 0.00 0.00 40 1007.9
20260504002612 23 27 0.0 0.0 0.00 0.00 0.00 39 1008.2
20260504002110 23 24 0.0 0.0 0.00 0.00 0.00 38 1008.2
20260504001608 23 32 0.0 0.0 0.00 0.00 0.00 39 1008.0
20260504001103 23 32 0.0 0.0 0.00 0.00 0.00 39 1008.1
20260504000601 24 23 0.0 0.0 0.00 0.00 0.00 38 1008.1
20260504000058 24 18 0.0 0.0 0.00 0.00 0.00 37 1008.2
20260503235556 25 30 0.0 0.0 0.00 0.00 0.00 37 1008.2
20260503235053 25 25 0.0 1.6 0.00 0.00 0.00 36 1008.0
20260503234550 25 37 0.0 0.0 0.00 0.00 0.00 34 1008.1
20260503234048 25 35 0.0 1.6 0.00 0.00 0.00 34 1008.2
20260503233545 25 23 0.0 0.0 0.00 0.00 0.00 36 1008.4
20260503233041 25 27 0.0 1.6 0.00 0.00 0.00 34 1008.3
20260503232538 25 29 0.0 1.6 0.00 0.00 0.00 33 1008.3
20260503232035 25 30 0.0 1.6 0.00 0.00 0.00 33 1008.4
20260503231533 25 52 1.6 4.8 0.00 0.00 0.00 32 1008.4
20260503231029 25 21 0.0 0.0 0.00 0.00 0.00 32 1008.5
20260503230526 25 35 0.0 1.6 0.00 0.00 0.00 31 1008.5
20260503230024 25 44 0.0 1.6 0.00 0.00 0.00 32 1008.8
20260503225520 25 22 1.6 3.2 0.00 0.00 0.00 31 1008.6
20260503225016 25 33 0.0 3.2 0.00 0.00 0.00 31 1008.6
20260503224514 26 351 1.6 4.8 0.00 0.00 0.00 31 1008.7
20260503224011 26 2 0.0 6.4 0.00 0.00 0.00 29 1008.8
20260503223509 26 23 0.0 3.2 0.00 0.00 0.00 30 1008.9
20260503223004 26 35 0.0 6.4 0.00 0.00 0.00 28 1008.8
20260503222502 27 33 0.0 3.2 0.00 0.00 0.00 27 1008.8
20260503222000 28 13 0.0 3.2 0.00 0.00 0.00 26 1008.8
20260503221458 29 191 0.0 3.2 0.00 0.00 0.00 25 1009.0
20260503220955 29 147 1.6 3.2 0.00 0.00 0.00 24 1008.9
20260503220451 29 28 1.6 3.2 0.00 0.00 0.00 24 1008.9
20260503215948 29 46 0.0 3.2 0.00 0.00 0.00 24 1009.2
20260503215445 28 35 0.0 1.6 0.00 0.00 0.00 25 1009.1
20260503214943 28 11 0.0 4.8 0.00 0.00 0.00 25 1009.2
20260503214441 28 28 0.0 3.2 0.00 0.00 0.00 25 1009.4
20260503213938 29 35 0.0 6.4 0.00 0.00 0.00 24 1009.3
20260503213436 29 31 0.0 1.6 0.00 0.00 0.00 24 1009.2
20260503212932 28 21 3.2 6.4 0.00 0.00 0.00 24 1009.3
20260503212429 28 137 1.6 4.8 0.00 0.00 0.00 24 1009.2
20260503211927 27 1 1.6 4.8 0.00 0.00 0.00 26 1009.4
20260503211423 28 330 1.6 3.2 0.00 0.00 0.00 24 1009.4
20260503210919 28 18 1.6 6.4 0.00 0.00 0.00 25 1009.2
20260503210416 28 31 1.6 3.2 0.00 0.00 0.00 24 1009.4
20260503205916 28 25 1.6 4.8 0.00 0.00 0.00 25 1009.5
20260503205414 28 48 1.6 3.2 0.00 0.00 0.00 25 1009.6
20260503204910 28 63 3.2 4.8 0.00 0.00 0.00 24 1009.6
20260503204407 28 23 0.0 9.7 0.00 0.00 0.00 24 1009.6
20260503203904 28 323 1.6 4.8 0.00 0.00 0.00 25 1009.5
20260503203401 28 26 0.0 6.4 0.00 0.00 0.00 25 1009.6
20260503202858 28 8 3.2 4.8 0.00 0.00 0.00 25 1010.0
20260503202356 27 34 0.0 4.8 0.00 0.00 0.00 27 1010.1
20260503201855 27 5 0.0 3.2 0.00 0.00 0.00 27 1010.2
20260503201351 27 349 1.6 6.4 0.00 0.00 0.00 25 1010.1
20260503200849 27 14 1.6 4.8 0.00 0.00 0.00 27 1010.4
20260503200344 27 14 1.6 3.2 0.00 0.00 0.00 27 1010.5
20260503195842 26 53 1.6 3.2 0.00 0.00 0.00 26 1010.5
20260503195338 27 113 1.6 4.8 0.00 0.00 0.00 25 1010.8
20260503194836 26 28 0.0 4.8 0.00 0.00 0.00 27 1011.0
20260503194331 27 48 1.6 9.7 0.00 0.00 0.00 26 1011.1
20260503193828 27 8 0.0 9.7 0.00 0.00 0.00 26 1011.2
20260503193324 27 45 1.6 3.2 0.00 0.00 0.00 27 1011.3
20260503192820 27 20 3.2 3.2 0.00 0.00 0.00 27 1011.5
20260503192315 27 14 0.0 3.2 0.00 0.00 0.00 27 1011.5
20260503191812 26 17 0.0 3.2 0.00 0.00 0.00 29 1011.6
20260503191309 26 236 1.6 4.8 0.00 0.00 0.00 26 1011.8
20260503190806 26 21 0.0 6.4 0.00 0.00 0.00 28 1012.0
20260503190303 26 15 0.0 4.8 0.00 0.00 0.00 27 1012.2
20260503185800 25 299 4.8 9.7 0.00 0.00 0.00 28 1012.2
20260503185255 25 7 1.6 6.4 0.00 0.00 0.00 28 1012.3
20260503184755 25 299 1.6 3.2 0.00 0.00 0.00 29 1012.3
20260503184252 25 31 1.6 3.2 0.00 0.00 0.00 30 1012.2
20260503183748 25 8 0.0 1.6 0.00 0.00 0.00 30 1012.3
20260503183246 25 28 1.6 4.8 0.00 0.00 0.00 28 1012.4
20260503182743 25 31 0.0 3.2 0.00 0.00 0.00 28 1012.7
20260503182242 25 39 1.6 6.4 0.00 0.00 0.00 28 1012.9
20260503181738 24 5 3.2 6.4 0.00 0.00 0.00 28 1013.0
20260503181235 24 330 3.2 4.8 0.00 0.00 0.00 28 1013.1
20260503180732 24 20 1.6 3.2 0.00 0.00 0.00 28 1013.3